Regional Weather Roundup
Issued by NWS

Home | Current Version | Previous Version | Text Only | Print | Product List | Glossary Off
Versions: 1 2 3 4 5 6 7 8 9 10 11 12 13 14 15 16 17 18 19 20 21 22 23 24 25 26 27 28 29 30 31 32 33 34 35 36 37 38 39 40 41 42 43 44 45 46 47 48 49 50

332
ASUS43 KMKX 262111
RWRWI

WISCONSIN REGIONAL WEATHER ROUNDUP
NATIONAL WEATHER SERVICE MILWAUKEE/SULLIVAN WI
400 PM CDT THU MAY 26 2016

NOTE: "FAIR" INDICATES FEW OR NO CLOUDS BELOW 12,000 FEET WITH NO
SIGNIFICANT WEATHER AND/OR OBSTRUCTIONS TO VISIBILITY.

WIZ001-002-006>008-014>016-023>028-262200-
NORTHWEST WISCONSIN

CITY           SKY/WX    TMP DP  RH WIND       PRES   REMARKS
SUPERIOR ARPT  CLOUDY    54  49  83 NE8       29.81F
ASHLAND        MOSUNNY   68  61  78 NE5       29.80F
HAYWARD        MOSUNNY   78  57  48 S12       29.79F
SIREN          MOSUNNY   80  51  36 W10G17    29.78S HX  80
CUMBERLAND     MOSUNNY   77  52  41 W13       29.80F
RICE LAKE      MOSUNNY   79  50  35 W12       29.82S
CHETEK         MOSUNNY   80  57  45 W7        29.80F HX  80
LADYSMITH      PTSUNNY   76  59  55 S8        29.83F
EAU CLAIRE     MOSUNNY   80  57  45 SW13      29.80F HX  80
MENOMONIE      SUNNY     82  52  36 SW14      29.80F HX  81
NEW RICHMOND   SUNNY     79  48  34 W14       29.81S
OSCEOLA        SUNNY     79  53  40 W12       29.82F
$$

WIZ003>005-009-010-017-018-262200-
NORTH CENTRAL WISCONSIN

CITY           SKY/WX    TMP DP  RH WIND       PRES   REMARKS
MANITOWISH WTR NOT AVBL
ARBOR VITAE    PTSUNNY   72  61  69 SE6       29.83S
WOODRUFF       PTSUNNY   72  61  69 SE6       29.83S
RHINELANDER    MOSUNNY   73  58  59 W5        29.85R
EAGLE RIVER      N/A     72  56  57 SW6       29.84R
LAND O LAKES   MOSUNNY   72  59  63 SW6       29.84S
PHILLIPS       MOSUNNY   74  61  62 SW7       29.82R
TOMAHAWK       PTSUNNY   74  59  58 W7        29.83F
MEDFORD        MOSUNNY   74  59  59 W9G16     29.84F
MERRILL        MOSUNNY   76  61  59 W13G18    29.85S
$$

WIZ029-030-035-036-043>047-262200-
CENTRAL WISCONSIN

CITY           SKY/WX    TMP DP  RH WIND       PRES   REMARKS
WAUSAU         MOSUNNY   78  57  48 W14       29.82F
MOSINEE        MOSUNNY   75  57  53 W13G18    29.85F
MARSHFIELD     MOSUNNY   78  58  49 W10G21    29.83F
STEVENS POINT  MOSUNNY   77  56  48 W9        29.84F
WAUPACA        SUNNY     82  56  41 W14       29.83F HX  81
WAUTOMA        SUNNY     82  58  43 SW13G20   29.82F HX  82
WISC RAPIDS    MOSUNNY   80  56  43 W10G18    29.84F HX  80
CAMP DOUGLAS   SUNNY     80  67  64 W10G22    29.84F HX  82
$$

WIZ011>013-019>022-031-037>040-048>050-262200-
NORTHEAST WISCONSIN

CITY           SKY/WX    TMP DP  RH WIND       PRES   REMARKS
ANTIGO         PTSUNNY   72  61  69 W8        29.85S
SHAWANO        MOSUNNY   81  57  43 W16G23    29.82S HX  81
OCONTO         MOSUNNY   78  62  57 W10G21    29.81S
STURGEON BAY   NOT AVBL
GREEN BAY      MOSUNNY   80  61  52 W13       29.82S HX  81
MANITOWOC      MOSUNNY   81  59  47 W17G29    29.82S HX  81
APPLETON       MOSUNNY   79  55  44 W12G20    29.82S
CLINTONVILLE   MOSUNNY   79  54  41 W15G22    29.82F
OSHKOSH        SUNNY     80  58  46 W9G18     29.82F HX  80
$$

WIZ032>034-041-042-053>061-262200-
SOUTHWEST WISCONSIN

CITY           SKY/WX    TMP DP  RH WIND       PRES   REMARKS
LA CROSSE      SUNNY     83  58  42 W13       29.82F HX  83
SPARTA         MOSUNNY   81  58  46 W12       29.84F HX  81
VIROQUA        SUNNY     79  59  49 W14G21    29.87F HX  80
BOSCOBEL       SUNNY     85  55  35 W12       29.83F HX  83
PRAIRIE DU CHI SUNNY     82  54  37 W8        29.83F HX  81
PLATTEVILLE    MOSUNNY   84  53  34 W12       29.85F HX  82
$$

WIZ056-057-062-063-064-067-068-262200-
SOUTH CENTRAL WISCONSIN

CITY           SKY/WX    TMP DP  RH WIND       PRES   REMARKS
REEDSBURG      SUNNY     81  58  44 SW12      29.83F HX  81
BARABOO/DELLS  SUNNY     81  55  40 W13       29.84F HX  81
LONE ROCK      SUNNY     85  53  33 W12       29.83F HX  83
MINERAL POINT  CLOUDY    84  45  24 W12       29.85F HX  82
MADISON        PTSUNNY   83  54  36 W6        29.82F HX  82
MIDDLETON      PTSUNNY   83  54  35 W12       29.84F HX  82
WATERTOWN      CLOUDY    82  57  43 W12G17    29.84S HX  82
MONROE         MOSUNNY   82  50  32 W14       29.85F HX  81
JANESVILLE     MOSUNNY   84  55  37 W14       29.83F HX  83
$$

WIZ051-052-058>065-066-070>072-262200-
SOUTHEAST WISCONSIN

CITY           SKY/WX    TMP DP  RH WIND       PRES   REMARKS
MILWAUKEE      PTSUNNY   83  60  45 SW13      29.83F HX  83
WAUKESHA       MOSUNNY   79  59  50 SW14G21   29.85F HX  80
MILWAUKEE/TIMM NOT AVBL
RACINE         MOSUNNY   83  62  49 W12       29.85F HX  84
BURLINGTON     SUNNY     82  59  46 W10G18    29.84F HX  82
KENOSHA        MOSUNNY   83  64  52 W14       29.84F HX  84
FOND DU LAC    SUNNY     81  59  47 W15       29.83S HX  81
SHEBOYGAN      SUNNY     82  59  45 SW13      29.83S HX  82
WEST BEND      SUNNY     81  55  41 W10       29.84S HX  80
JUNEAU         CLOUDY    81  61  51 SW13      29.85F HX  81
$$

LSZ147-162-262200-
LAKE SUPERIOR

STATION/POSITION TIME  TEMP    WIND        PRES    WAVE
                       AIR SEA DIR/SP/G            HT/PER
                 (UTC) (F)     (DEG/KT/KT) (MB)    (FT/S)
W MID LAKE BUOY  2050   41 38   30/  2/  2 1010.1R   1
DEVILS ISLAND    2100   44     360/  5/  6 1010.6S
SAXON HARBOR     2000   51     350/  3/  5 1009.5R
$$

LMZ867-665-643>646-262200-
LAKE MICHIGAN

STATION/POSITION TIME  TEMP    WIND        PRES    WAVE
                       AIR SEA DIR/SP/G            HT/PER
                 (UTC) (F)     (DEG/KT/KT) (MB)    (FT/S)
CHAMBERS ISLAND  2000   65      60/  4/  4 1009.5S
N MID LAKE BUOY  2050   49 45  210/ 16/ 16 1009.1F   2/ 3
NORTHPORT PIER   2000   56     150/  4/  6 1009.5F
SISTER BAY       2019   71     320/  7/  8   N/A
ALGOMA LAKESHORE 2017          170/  8/  9   N/A
KEWAUNEE LAKESHO 2000          230/ 11/ 21 1008.8R
SHEBOYGAN LAKESH 2100   64     170/ 14/ 15 1010.1F
PORT WASHINGTON  2030          230/  7/ 16 1010.5F
S MID LAKE BUOY  2050   56 50  160/ 10/ 10 1010.9F   1/ 3
KENOSHA   LAKESH 2100   82     260/ 10/ 16 1009.8F
$$

TC  - TEMPERATURE IN CELSIUS
VSB - VISIBILITY IN STATUTE MILES
WCI - WIND CHILL INDEX
HX  - HEAT INDEX





USA.gov is the U.S. government's official web portal to all federal, state and local government web resources and services.